Terug naar catalogus

JIXING KUANFU-02B 07

ActiefWetenschapSSO
NORAD 65938·PAYLOAD·🇨🇳 China
Deze satellietnaam is nog niet bevestigd door officiële bronnen.

Gelanceerd Oct 11, 2025 vanaf Yellow Sea Launch Area

Loading…

Volgende Passages (komende 24 uur)

TLE

VersSource: Space-Track

Epoch: Sep 13, 2026, 16:16 UTC

1 65938U 25226A   26256.67821776  .00006112  00000-0  30758-3 0  9999
2 65938  97.6393 337.8586 0013024 194.6705 165.4152 15.17518511 51119

Volg JIXING KUANFU-02B 07 in realtime met AllMySat

Download on the App Store